Location: Newark
(40.9833°N, 0.0333°W)
Time: 03:23:17
(UTC+00:00)

Transit 2A Rocket - Pass Details

Date: 02 November 2020
Orbit: 588 x 914 km, 66.7° (Epoch: 26 November)

Event Time Altitude Azimuth Distance (km) Brightness Sun altitude
Rises 07:11:57 0° 177° (S) 3,526 8.9 6.0°
Reaches altitude 10° 07:14:46 10° 166° (SSE) 2,595 8.4 6.5°
Maximum altitude 07:19:54 29° 109° (ESE) 1,594 8.2 7.4°
Drops below altitude 10° 07:24:57 10° 51° (NE) 2,553 8.1 8.2°
Sets 07:27:42 0° 41° (NE) 3,460 8.6 8.7°
